User: anonymous   Login
Location: Unspecified
(0.0000°N, 0.0000°E)
Time: 10:06:19
(UTC+00:00)
Language:

TIANLIAN 1-O5 - Orbit

View from above orbital plane
View from above orbital plane
View from above satellite
View from above satellite

Ground track
Ground track

The orbit is defined by the following mean orbital elements,

1 49011U          26145.58710845 +.00000000 +00000-0 +00000-0 0 00004
2 49011   1.5378  80.8778 0001502 292.2499  98.1741  1.00273274    00
Epoch (UTC): 25 May 2026 14:05:26
Eccentricity: 0.0001502
inclination: 1.5378°
perigee height: 35780 km
apogee height: 35793 km
right ascension of ascending node: 80.8778°
argument of perigee: 292.2499°
revolutions per day: 1.00273274
mean anomaly at epoch: 98.1741°

The dashed part of the orbit path shows where the satellite is in the earth's shadow,  

DLR